SAUDISAT 1C (SO-50)

Last updated on Mon Nov 03 2025 00:03:21 GMT+0000 (Coordinated Universal Time)

1 27607U 02058C 25306.45989558 .00001699 00000+0 22249-3 0 9992 2 27607 64.5510 110.0681 0069679 304.0578 55.3925 14.82158626230845
UTC large
Height (km)
Speed (km/s)
/
Latitude / Longitude
Inclination (degrees)
Orbital Period (minutes)
Azimuth
Elevation
Range (km)
Doppler Factor

Next 0 passes for location: London (51.5072 / 0.1276)

Sorry there are no passes over London.